Weather Service Report


771 
ASUS44 KLUB 171310
RWRTX 
WEST TEXAS WEATHER ROUNDUP
NATIONAL WEATHER SERVICE LUBBOCK TX
700 AM CST TUE JAN 17 2017

NOTE: "FAIR" INDICATES FEW OR NO CLOUDS BELOW 12,000 FEET WITH NO
SIGNIFICANT WEATHER AND/OR OBSTRUCTIONS TO VISIBILITY.

TXZ004-006>008-010-012-014-016-OKZ002-171400-
TEXAS PANHANDLE/OKLAHOMA PANHANDLE
  
CITY           SKY/WX    TMP DP  RH WIND       PRES   REMARKS
AMARILLO       CLOUDY    34  32  92 N12       30.14F WCI  25          
BORGER         CLOUDY    37  33  85 W7        30.16S WCI  32          
CANADIAN         N/A    N/A N/A N/A MISG        N/A                   
DALHART        CLOUDY    36  32  85 SW5       30.16R WCI  32          
DUMAS          CLOUDY    34  32  92 NW3       30.15S                  
GUYMON         CLOUDY    35  32  88 W5        30.13S WCI  31          
HEREFORD       PTCLDY    32  32  99 N6        30.15F WCI  26          
PAMPA          PTCLDY    30  29  96 W6        30.16R WCI  24          
$$

TXZ026-029-035-045-048-171400-
SOUTHERN PANHANDLE/SOUTH PLAINS/ROLLING PLAINS
  
CITY           SKY/WX    TMP DP  RH WIND       PRES   REMARKS
CHILDRESS      CLEAR     33  30  88 NW7       30.18R WCI  27          
SEMINOLE       CLEAR     34  32  92 NE5       30.17R WCI  30          
LUBBOCK        PTCLDY    33  31  92 N10       30.14R WCI  25          
PLAINVIEW      CLOUDY    32  30  93 N9        30.15R WCI  24          
SNYDER         CLEAR     35  33  92 NE8       30.16R WCI  28          
$$

TXZ052-054-060>062-072-078-127-140-154-169-171400-
PERMIAN BASIN/CONCHO VALLEY/BIG COUNTRY/EDWARDS PLATEAU  
  
CITY           SKY/WX    TMP DP  RH WIND       PRES   REMARKS
ABILENE        CLOUDY    36  35  96 N5        30.17R WCI  32          
BIG SPRING     CLEAR     37  35  90 NE7       30.18R WCI  32          
BROWNWOOD      CLOUDY    45  37  76 NE5       30.15R                  
JUNCTION       MOCLDY    51  44  77 NE10      30.10R                  
MIDLAND        CLEAR     36  33  89 N8        30.14R WCI  30          
ODESSA         CLEAR     37  33  85 NE8       30.15R WCI  31          
SAN ANGELO     MOCLDY    44  37  76 NE8       30.13R                  
SONORA         CLOUDY    46  39  76 NE12G17   30.13S                  
SWEETWATER     CLEAR     37  35  94 N6        30.18S WCI  32          
WINK           CLOUDY    40  35  83 NE15      30.12R WCI  32          
$$

TXZ055-058-074-075-080-082-171400-
FAR WEST/SOUTHWEST MOUNTAINS/TRANS PECOS
  
CITY           SKY/WX    TMP DP  RH WIND       PRES   REMARKS
ALPINE         CLOUDY    37  33  87 CALM      30.14R                  
DRYDEN           N/A     52  44  74 N10       30.02R                  
EL PASO        PTCLDY    42  35  76 N10       30.05R                  
FORT STOCKTON  CLEAR     36  36 100 N6        30.10S WCI  31          
GUADALUPE PASS FOG       35  35 100 NE40      30.05S VSB 1/4 WCI  20  
MARFA          CLEAR     41  35  79 N17       30.04S                  
PECOS          CLOUDY    41  37  84 NW7       30.15R                  
$$

TXZ014-016-019-021>030-083-171400
TEXAS TECH WEST TEXAS MESONET/TEXAS PANHANDLE/NORTHERN SOUTH PLAINS
  
CITY           SKY/WX    TMP DP  RH WIND       PRES   REMARKS
ABERNATHY 5ENE   N/A     31  31  99 N10       30.17R WCI  22          
AMARILLO 9NNE    N/A     34  33  94 N3        30.16S                  
AMARILLO 7SSE    N/A     34  31  88 N8        30.15S WCI  27          
AMHERST 1NE      N/A     31  30  96 NE1       30.18R                  
BOOTLEG 11WNW    N/A     26  25  94 NW8       30.16S WCI  18          
CANADIAN 6E      N/A     29  28  96 W6        30.13R WCI  23          
CAPROCK CYN SP   N/A     37  33  85 NW7       30.18R WCI  31          
CHILDRESS 2NNE   N/A     32  31  94 W9        30.17R WCI  24          
CLARENDON 2WSW   N/A     32  29  88 N7        30.15R WCI  26          
CLAUDE 12SW      N/A     32  30  92 NW14      30.13F WCI  22          
DIMMITT 2NE      N/A     32  31  95 N6        30.15R WCI  26          
FLOYDADA 2NNE    N/A     32  32  99 N7        30.15R WCI  26          
FRIONA 2NE       N/A     28  27  97 N2        30.16R                  
GOODLETT 3W      N/A     32  30  92 W9        30.16S WCI  24          
HART 3N          N/A     32  31  96 N13       30.15R WCI  23          
MCLEAN 1E        N/A     32  30  93 NW12      30.13R WCI  23          
MEMPHIS 1NE      N/A     34  30  86 SW1       30.18R                  
MULESHOE 2SSW    N/A     29  28  96 N6        30.16S WCI  23          
OLTON 6S         N/A     32  30  92 N2        30.17R                  
PALO DURO SP     N/A     33  29  85 N7        30.16S WCI  27          
PAMPA 2E         N/A     31  30  95 NW7       30.15R WCI  24          
PLAINVIEW 1S     N/A     33  32  96 N8        30.16R WCI  26          
SILVERTON 7ESE   N/A     33  31  94 NW9       30.17R WCI  25          
TULIA 2ENE       N/A     33  32  97 N7        30.16R WCI  27          
TURKEY 2WSW      N/A     33  31  94 W2        30.18R                  
UMBARGER 3NNE    N/A     32  32  98 N6        30.15S WCI  27          
$$

TXZ033>036-039>041-045>048-171400
TEXAS TECH WEST TEXAS MESONET/SOUTH PLAINS  
  
CITY           SKY/WX    TMP DP  RH WIND       PRES   REMARKS
AIKEN 3WSW       N/A     32  32  98 N7        30.18R WCI  26          
ANDREWS 2NE      N/A     33  31  94 N7        30.16R WCI  27          
ANTON 6SSW       N/A     32  31  96 NW7       30.16R WCI  25          
BROWNFIELD 2S    N/A     35  31  87 N7        30.15R WCI  29          
DENVR CTY 7WNW   N/A     32  30  92 N7        30.15R WCI  26          
GAIL 2ESE        N/A     33  31  92 N3        30.17R                  
LAMESA 2SE       N/A     36  33  92 NE5       30.17R WCI  32          
LEVELLAND 4S     N/A     32  29  90 N10       30.15S WCI  24          
LUBBOCK 3WNW     N/A     33  32  97 N3        30.17R                  
MORTON 1ENE      N/A     33  31  90 N6        30.16R WCI  28          
ODONNELL 1N      N/A     34  32  90 NE9       30.16R WCI  27          
PLAINS 3N        N/A     32  31  99 N9        30.14S WCI  24          
RALLS 1SE        N/A     33  30  89 N10       30.16R WCI  25          
REESE CENTER     N/A     31  30  96 N9        30.15R WCI  23          
SEAGRAVES 1SW    N/A     34  32  91 N8        30.15S WCI  27          
SEMINOLE 2NNE    N/A     35  31  88 NE6       30.16R WCI  29          
SLATON 2NE       N/A     34  31  91 N9        30.16R WCI  26          
SNYDER 3E        N/A     35  33  93 N9        30.16R WCI  28          
SUNDOWN 8SW      N/A     31  30  94 N9        30.15R WCI  23          
TAHOKA 3NNE      N/A     34  31  89 N8        30.16R WCI  27          
WOLFFORTH 6SSW   N/A     33  32  95 N8        30.16R WCI  26          
$$

TXZ031-032-036>038-042>044-171400-
TEXAS TECH WEST TEXAS MESONET/ROLLING PLAINS 
  
CITY           SKY/WX    TMP DP  RH WIND       PRES   REMARKS
ASPERMONT 3NE    N/A     31  30  96 SW1       30.19R                  
FLUVANNA 3WNW    N/A     35  32  88 N8        30.15S WCI  29          
GRAHAM 5SSW      N/A     35  32  88 N5        30.17R WCI  31          
GUTHRIE 10WSW    N/A     34  31  88 N6        30.17R WCI  29          
HASKELL 1NW      N/A     35  34  99 N2        30.18R                  
JAYTON 1SSE      N/A     30  30  98 NW2       30.18R                  
KNOX CITY 3NW    N/A     34  31  88 NW2       30.18S                  
LK A HENRY 1NW   N/A     34  31  89 N6        30.17R WCI  29          
NORTHFIELD 1S    N/A     29  29  99 W6        30.18R WCI  23          
PADUCAH 10SW     N/A     33  31  94 NW8       30.17R WCI  26          
POST 1NE         N/A     35  32  89 NW2       30.17R                  
RRING SPRGS 3N   N/A     34  32  95 N7        30.16R WCI  27          
SEYMOUR 3NW      N/A     36  33  89 NW5       30.18R WCI  32          
SPUR 1W          N/A     32  30  94 SE1       30.17R                  
WEINERT 2NNE     N/A     34  32  92 CALM      30.18S                  
WHITE RVR 6NE    N/A     35  31  85 N7        30.15R WCI  29          
$$

TXZ052-054-060>062-072-078-127-140-154-169-171400-
TEXAS TECH WEST TEXAS MESONET/PERMIAN BASIN/
CONCHO VALLEY/BIG COUNTRY/EDWARDS PLATEAU
  
CITY           SKY/WX    TMP DP  RH WIND       PRES   REMARKS
COYANOSA 2N      N/A     37  35  90 N5        30.14R WCI  34          
JUNCTION 1SSW    N/A     51  44  78 NE8       30.11S                  
MERTZON 3NNE     N/A     41  36  84 E3        30.15R                  
SAN ANGELO 7NW   N/A     42  34  73 NE3       30.15R                  
STRLNG CT 4WSW   N/A     39  34  81 N3        30.16R                  
ST LAWRNCE 5SW   N/A     38  34  85 NE10      30.13R WCI  32          
SWEETWATR 11SW   N/A     34  33  97 NE10      30.17R WCI  26          
WALL 1E          N/A     42  37  82 CALM      30.15S                  
$$

TXZ055-058-074-075-080-082-171400-
TEXAS TECH WEST TEXAS MESONET/FAR WEST/SOUTHWEST MOUNTAINS/TRANS PECOS
  
CITY           SKY/WX    TMP DP  RH WIND       PRES   REMARKS
PRSMN GAP BBNP   N/A     51  39  61 N17       30.00S                  
GUADLPE MTN NP   N/A     35  34  98 NE10      30.13R WCI  27          
$$
  

Return to Home page


Western Regional Climate Center, wrcc@dri.edu